This demonstration page uses our WeatherBlox Daily Observations layout. Learn more.

Left ArrowRight Arrow

39.29038, -76.61219

Hourly Observations for May 25, 2017

Temp ( °F °C ) Dew Point ( °F °C ) Humidity (%) Winds ( mph kmh ) Pressure ( in mb ) Visibility ( mi km ) Precip ( " mm )
12:54 am 00:54 undefined 59 15 57 13.9 93 93 undefined N/A 29.69 1005 N/A 0.01 0.25
1:54 am 01:54 undefined 59 15 57 13.9 93 93 undefined N/A 29.66 1004 N/A 0.02 0.51
2:54 am 02:54 undefined 58 14.4 57 13.9 97 97 undefined N/A 29.62 1003 N/A 0.04 1.02
3:54 am 03:54 undefined 58 14.4 57 13.9 97 97 undefined N/A 29.60 1002 N/A 0.04 1.02
4:54 am 04:54 undefined 58 14.4 56 13.3 93 93 undefined N/A 29.56 1001 N/A 0.03 0.76
5:54 am 05:54 undefined 57 13.9 56 13.3 96 96 undefined N/A 29.54 1001 N/A 0.01 0.25
6:54 am 06:54 undefined 58 14.4 57 13.9 97 97 undefined N/A 29.52 1000 N/A 0.08 2.03
7:54 am 07:54 undefined 58 14.4 57 13.9 97 97 undefined N/A 29.52 1000 N/A 0.10 2.54
8:54 am 08:54 undefined 59 15 58 14.4 96 96 undefined N/A 29.49 999 N/A 0.24 6.10
9:54 am 09:54 undefined 60 15.6 59 15 96 96 undefined N/A 29.50 999 N/A 0.03 0.76
10:54 am 10:54 undefined 61 16.1 60 15.6 97 97 undefined N/A 29.52 1000 N/A 0.00 0.00
11:54 am 11:54 undefined 63 17.2 61 16.1 93 93 undefined N/A 29.53 1000 N/A 0.00 0.00
12:54 pm 12:54 undefined 67 19.4 63 17.2 87 87 undefined N/A 29.52 1000 N/A 0.00 0.00
1:54 pm 13:54 undefined 71 21.7 62 16.7 73 73 undefined N/A 29.51 999 N/A 0.00 0.00
2:54 pm 14:54 undefined 72 22.2 61 16.1 68 68 undefined N/A 29.49 999 N/A 0.00 0.00
3:54 pm 15:54 undefined 74 23.3 60 15.6 62 62 undefined N/A 29.46 998 N/A 0.00 0.00
4:54 pm 16:54 undefined 74 23.3 60 15.6 62 62 undefined N/A 29.43 997 N/A 0.00 0.00
5:54 pm 17:54 undefined 72 22.2 62 16.7 71 71 undefined N/A 29.43 997 N/A 0.00 0.00
6:54 pm 18:54 undefined 71 21.7 62 16.7 73 73 undefined N/A 29.43 997 N/A 0.00 0.00
7:54 pm 19:54 undefined 61 16.1 58 14.4 90 90 undefined N/A 29.41 996 N/A 0.29 7.37
8:54 pm 20:54 undefined 62 16.7 59 15 90 90 undefined N/A 29.45 997 N/A 0.06 1.52
9:54 pm 21:54 undefined 61 16.1 59 15 93 93 undefined N/A 29.49 999 N/A 0.00 0.00
10:54 pm 22:54 undefined 60 15.6 59 15 96 96 undefined N/A 29.51 999 N/A 0.00 0.00
11:54 pm 23:54 undefined 61 16.1 58 14.4 90 90 undefined N/A 29.53 1000 N/A 0.00 0.00

Powered by AerisWeather